EW1417 Weather Reports


time (UTC)temp
F
wind
direction
speed
knots
gust
knots
rain 1hr
in
rain 24hr
in
rain mn
in
humidity
%
barometer
mb
20260509101550 50 360 11.3 17.4 0.00 0.00 0.00 85 999.0
20260509100100 50 360 9.6 17.4 0.00 0.00 0.00 84 999.1
20260509100002 50 360 9.6 17.4 0.00 0.00 0.00 84 999.1
20260509094542 50 360 12.2 20.0 0.00 0.00 0.00 83 999.2
20260509093020 51 360 10.4 22.6 0.00 0.00 0.00 81 999.3
20260509091629 52 360 13.0 21.7 0.00 0.00 0.00 80 999.5
20260509090018 53 360 11.3 18.2 0.00 0.00 0.00 79 999.7
20260509084555 53 360 11.3 17.4 0.00 0.00 0.00 77 999.7
20260509083040 53 360 9.6 15.6 0.00 0.00 0.00 75 999.8
20260509081516 53 360 11.3 16.5 0.00 0.00 0.00 74 1000.1
20260509080050 52 360 10.4 18.2 0.00 0.00 0.00 72 1000.2
20260509074516 53 360 12.2 20.0 0.00 0.00 0.00 72 1000.3
20260509073126 53 360 10.4 20.0 0.00 0.00 0.00 72 1000.6
20260509071532 55 360 12.2 19.1 0.00 0.00 0.00 68 1001.1
20260509070054 57 360 9.6 16.5 0.00 0.00 0.00 65 1001.2
20260509064530 56 360 8.7 13.9 0.00 0.00 0.00 63 1001.8
20260509063012 56 360 7.8 13.0 0.00 0.00 0.00 60 1002.2
20260509061550 54 360 3.5 7.0 0.00 0.00 0.00 53 1002.3
20260509060013 54 360 5.2 9.6 0.00 0.00 0.00 51 1002.6
20260509054608 54 360 3.5 7.8 0.00 0.00 0.00 49 1002.8
20260509053031 54 360 4.3 7.8 0.00 0.00 0.00 48 1002.9
20260509051508 54 360 5.2 8.7 0.00 0.00 0.00 48 1003.2
20260509050027 54 360 3.5 8.7 0.00 0.00 0.00 45 1003.3
20260509044601 54 360 4.3 10.4 0.00 0.00 0.00 41 1003.4
20260509044503 54 360 3.5 10.4 0.00 0.00 0.00 41 1003.4
20260509043046 54 360 4.3 7.8 0.00 0.00 0.00 37 1003.5
20260509041517 54 360 5.2 10.4 0.00 0.00 0.00 34 1003.7
20260509040048 55 360 4.3 7.8 0.00 0.00 0.00 32 1003.8
20260509034510 55 360 5.2 12.2 0.00 0.00 0.00 32 1004.2
20260509033049 55 360 3.5 9.6 0.00 0.00 0.00 31 1004.2
20260509031528 55 360 5.2 8.7 0.00 0.00 0.00 31 1004.2
20260509030051 55 360 5.2 9.6 0.00 0.00 0.00 32 1004.4
20260509024525 55 360 5.2 9.6 0.00 0.00 0.00 32 1004.5
20260509023008 55 360 4.3 12.2 0.00 0.00 0.00 34 1004.6
20260509021545 54 360 5.2 9.6 0.00 0.00 0.00 34 1004.6
20260509020010 54 360 4.3 9.6 0.00 0.00 0.00 35 1004.6
20260509014551 54 360 3.5 7.8 0.00 0.00 0.00 36 1004.6
20260509013024 54 360 3.5 7.8 0.00 0.00 0.00 35 1004.6
20260509011506 55 360 3.5 7.0 0.00 0.00 0.00 35 1004.6
20260509010032 55 360 3.5 7.0 0.00 0.00 0.00 34 1004.8
20260509004611 56 360 3.5 8.7 0.00 0.00 0.00 34 1004.7
20260509004501 56 360 4.3 8.7 0.00 0.00 0.00 34 1004.8
20260509003039 57 360 5.2 10.4 0.00 0.00 0.00 32 1004.7
20260509001518 57 360 4.3 7.8 0.00 0.00 0.00 34 1004.8
20260509000036 58 360 7.0 10.4 0.00 0.00 0.00 31 1004.9
20260508234512 57 360 5.2 7.8 0.00 0.00 0.00 33 1005.1
20260508233050 57 360 5.2 8.7 0.00 0.00 0.00 35 1005.3
20260508231526 56 360 6.1 10.4 0.00 0.00 0.00 38 1005.5
20260508230050 56 360 7.8 13.0 0.00 0.00 0.00 38 1005.6
20260508224527 56 360 8.7 13.9 0.00 0.00 0.00 40 1005.8
20260508223017 56 360 7.8 13.0 0.00 0.00 0.00 42 1005.8
20260508221542 56 360 7.8 13.0 0.00 0.00 0.00 41 1005.9
20260508220005 56 360 8.7 13.9 0.00 0.00 0.00 40 1006.1
20260508214551 56 360 8.7 14.8 0.00 0.00 0.00 42 1006.1
20260508213030 56 360 9.6 14.8 0.00 0.00 0.00 40 1006.2
20260508211602 56 360 8.7 16.5 0.00 0.00 0.00 45 1006.3
20260508211503 56 360 8.7 16.5 0.00 0.00 0.00 44 1006.3
20260508210024 55 360 8.7 16.5 0.00 0.00 0.00 46 1006.6
20260508204512 55 360 9.6 17.4 0.00 0.00 0.00 44 1006.8
20260508203045 55 360 10.4 17.4 0.00 0.00 0.00 43 1006.9
20260508201521 56 360 10.4 15.6 0.00 0.00 0.00 42 1007.0
20260508200039 56 360 8.7 16.5 0.00 0.00 0.00 40 1007.1
20260508194516 56 360 10.4 16.5 0.00 0.00 0.00 39 1007.5
20260508193105 56 360 8.7 14.8 0.00 0.00 0.00 39 1007.6
20260508191535 56 17 10.4 14.8 0.00 0.00 0.00 39 1007.9
20260508190053 55 360 10.4 15.6 0.00 0.00 0.00 38 1008.0
20260508184537 56 360 10.4 16.5 0.00 0.00 0.00 42 1008.2
20260508183012 55 360 10.4 15.6 0.00 0.00 0.00 42 1008.4
20260508181558 55 360 10.4 16.5 0.00 0.00 0.00 49 1008.6
20260508180016 55 360 8.7 15.6 0.00 0.00 0.00 51 1008.9
20260508174548 53 360 10.4 16.5 0.00 0.00 0.00 57 1009.1
20260508173024 53 360 10.4 17.4 0.00 0.00 0.00 60 1009.3
20260508171505 53 360 10.4 18.2 0.00 0.00 0.00 60 1009.6
20260508170019 52 360 10.4 17.4 0.00 0.00 0.00 63 1009.7
20260508164559 52 360 9.6 17.4 0.00 0.00 0.00 64 1009.9
20260508164501 52 360 10.4 17.4 0.00 0.00 0.00 62 1009.9
20260508163046 52 360 9.6 13.9 0.00 0.00 0.00 61 1010.0
20260508161515 51 360 10.4 15.6 0.00 0.00 0.00 64 1010.0
20260508160056 51 360 9.6 16.5 0.00 0.00 0.00 66 1010.0
20260508154513 51 360 8.7 13.9 0.00 0.00 0.00 63 1009.9
20260508153053 51 360 7.8 13.0 0.00 0.00 0.00 66 1010.1
20260508151528 49 360 10.4 13.9 0.00 0.00 0.00 67 1010.2
20260508150048 50 360 7.0 13.0 0.00 0.00 0.00 67 1010.1
20260508144524 49 360 9.6 13.9 0.00 0.00 0.00 66 1010.2
20260508143006 49 360 8.7 13.9 0.00 0.00 0.00 66 1010.2
20260508141554 50 360 8.7 13.9 0.00 0.00 0.00 64 1010.4
20260508140005 49 360 7.0 11.3 0.00 0.00 0.00 65 1010.2
20260508134542 48 360 9.6 13.9 0.00 0.00 0.00 64 1010.2
20260508133021 48 360 7.8 13.9 0.00 0.00 0.00 66 1010.4
20260508131559 47 360 8.7 15.6 0.00 0.00 0.00 65 1010.4
20260508130017 47 360 8.7 13.9 0.00 0.00 0.00 66 1010.5
20260508124552 46 360 8.7 13.0 0.00 0.00 0.00 68 1010.5
20260508123028 45 360 6.1 12.2 0.00 0.00 0.00 70 1010.4
20260508121530 45 360 7.8 13.0 0.00 0.00 0.00 69 1010.3
20260508120031 44 360 7.0 12.2 0.00 0.00 0.00 68 1010.2
20260508114508 44 360 7.8 12.2 0.00 0.00 0.00 69 1010.1
20260508113046 44 360 6.1 10.4 0.00 0.00 0.00 70 1010.0